This is the latest recevied weather packets stored in our database for station/object OK2ZAW-19. If no packets are shown the sender has not sent any weather packets the latest 10 day(s).
| Time | Temp. | Humidity | Pressure | Rain* | Wind** | Luminosity | Snow |
|---|---|---|---|---|---|---|---|
| 1777891827 | 19.44° C | 60% | 1015.5 hPa | - | - | 337 W/m² | - |
| 1777891516 | 19.44° C | 59% | 1015.5 hPa | - | - | 337 W/m² | - |
| 1777891204 | 18.89° C | 61% | 1015.5 hPa | - | - | 337 W/m² | - |
| 1777890893 | 18.89° C | 60% | 1015.6 hPa | - | - | 337 W/m² | - |
| 1777890582 | 18.89° C | 59% | 1015.6 hPa | - | - | 337 W/m² | - |
| 1777890270 | 18.89° C | 62% | 1015.7 hPa | - | - | 337 W/m² | - |
| 1777889959 | 18.33° C | 60% | 1015.7 hPa | - | - | 337 W/m² | - |
| 1777889648 | 18.33° C | 63% | 1015.7 hPa | - | - | 337 W/m² | - |
| 1777889337 | 17.78° C | 62% | 1015.9 hPa | - | - | 337 W/m² | - |
| 1777888714 | 17.78° C | 62% | 1015.9 hPa | - | - | 337 W/m² | - |
| 1777888403 | 17.78° C | 66% | 1015.9 hPa | - | - | 337 W/m² | - |
| 1777888092 | 17.78° C | 67% | 1016 hPa | - | - | 337 W/m² | - |
| 1777887781 | 17.22° C | 68% | 1015.9 hPa | - | - | 337 W/m² | - |
| 1777887470 | 17.22° C | 67% | 1016 hPa | - | - | 337 W/m² | - |
| 1777886847 | 16.67° C | 68% | 1016 hPa | - | - | 337 W/m² | - |
| 1777886225 | 16.11° C | 70% | 1016 hPa | - | - | 337 W/m² | - |
| 1777885603 | 16.11° C | 73% | 1016 hPa | - | - | 337 W/m² | - |
| 1777885292 | 15.56° C | 73% | 1015.9 hPa | - | - | 337 W/m² | - |
| 1777884670 | 15° C | 74% | 1015.9 hPa | - | - | 337 W/m² | - |
| 1777884359 | 15° C | 76% | 1015.9 hPa | - | - | 337 W/m² | - |
| 1777884049 | 14.44° C | 75% | 1015.9 hPa | - | - | 337 W/m² | - |
| 1777883738 | 14.44° C | 76% | 1015.9 hPa | - | - | 337 W/m² | - |
| 1777883427 | 14.44° C | 76% | 1015.8 hPa | - | - | 337 W/m² | - |
| 1777883116 | 14.44° C | 75% | 1015.8 hPa | - | - | 337 W/m² | - |
| 1777882806 | 14.44° C | 77% | 1015.8 hPa | - | - | 337 W/m² | - |
* Rain since midnight (hover to see other rain measurements)
** Current wind speed in m/s (hover to see current wind gust speed)